Uvalde, TX

11:35 PM CDT on April 26, 2017 (GMT -0500)
Garner

Weather History for KUVA - February, 2013

Change the Weather History Date:

Wednesday, February 20, 2013

  Actual Average (KHDO) Record (KHDO)
Temperature  
Mean Temperature 65 °F -  
Max Temperature 77 °F 66 °F 87 °F (2011)
Min Temperature 53 °F 43 °F 32 °F (2009)
Growing Degree Days 15 (Base 50)    
Moisture  
Dew Point 53 °F    
Average Humidity 69    
Maximum Humidity 86    
Minimum Humidity 20    
Precipitation  
Precipitation 0.00 in - - ()
Sea Level Pressure  
Sea Level Pressure 29.83 in    
Wind  
Wind Speed 12 mph (ESE)    
Max Wind Speed 22 mph    
Max Gust Speed 26 mph    
Visibility 10 miles    
Events      
Averages and records for this station are not official NWS values.
T = Trace of Precipitation, MM = Missing Value Source: NWS Daily Summary

Daily Weather History Graph

Daily Weather History Graph

Search for Another Location

Airport or City:

Trip Planner

Search our weather history database for the weather conditions in past years. The results will help you decide how hot, cold, wet, or windy it might be!

Date:

Astronomy

Feb. 20, 2013 Rise Set
Actual Time 7:13 AM CST 6:32 PM CST
Civil Twilight 6:49 AM CST 6:56 PM CST
Nautical Twilight 6:21 AM CST 7:24 PM CST
Astronomical Twilight 5:53 AM CST 7:51 PM CST
Moon 2:08 PM CST (2/20) 3:21 AM CST (2/20)
Length of Visible Light 12h 07m
Length of Day
11h 19m
Waxing Gibbous, 76% of the Moon is Illuminated
Feb 20
Waxing Gibbous
Feb 25
Full
Mar 4
Last Quarter
Mar 11
New
Mar 19
First Quarter

Hourly Weather History & Observations

Time (CST) Temp. Dew Point Humidity Pressure Visibility Wind Dir Wind Speed Gust Speed Precip Events Conditions
12:15 AM 59.0 °F 17.2 °F 20% 30.09 in 10.0 mi SE 8.1 mph - N/A   Overcast
12:35 AM 59.0 °F 19.4 °F 22% 30.06 in 10.0 mi SE 9.2 mph - N/A   Overcast
12:55 AM 58.3 °F 24.6 °F 27% 30.04 in 10.0 mi ESE 13.8 mph 21.9 mph N/A   Overcast
1:15 AM 57.7 °F 23.5 °F 27% 30.06 in 10.0 mi East 10.4 mph - N/A   Overcast
1:35 AM 57.7 °F 30.2 °F 35% 30.06 in 10.0 mi ESE 9.2 mph - N/A   Overcast
1:55 AM 57.7 °F 32.5 °F 39% 30.05 in 10.0 mi East 6.9 mph - N/A   Overcast
2:15 AM 57.0 °F 36.1 °F 46% 30.03 in 10.0 mi East 15.0 mph 19.6 mph N/A   Overcast
2:55 AM 55.9 °F 36.5 °F 48% 30.03 in 10.0 mi East 9.2 mph - N/A   Overcast
3:15 AM 55.9 °F 37.6 °F 50% 30.01 in 10.0 mi ENE 10.4 mph - N/A   Overcast
3:35 AM 56.3 °F 39.6 °F 53% 30.00 in 10.0 mi East 9.2 mph 16.1 mph N/A   Overcast
3:55 AM 55.9 °F 38.7 °F 52% 30.01 in 10.0 mi ENE 8.1 mph - N/A   Overcast
4:15 AM 55.4 °F 42.8 °F 63% 30.00 in 10.0 mi East 9.2 mph - N/A   Drizzle
4:35 AM 53.8 °F 45.5 °F 74% 29.97 in 10.0 mi East 9.2 mph - N/A   Drizzle
4:55 AM 55.4 °F 46.8 °F 73% 29.98 in 10.0 mi ENE 9.2 mph - N/A   Overcast
5:15 AM 55.4 °F 47.7 °F 75% 29.96 in 10.0 mi East 10.4 mph 16.1 mph N/A   Drizzle
5:35 AM 55.4 °F 48.4 °F 77% 29.94 in 10.0 mi East 13.8 mph - N/A   Overcast
5:55 AM 55.4 °F 48.6 °F 78% 29.91 in 10.0 mi ESE 16.1 mph - N/A   Overcast
6:15 AM 55.4 °F 48.9 °F 79% 29.93 in 10.0 mi East 9.2 mph - N/A   Overcast
6:35 AM 57.4 °F 51.3 °F 80% 29.91 in 10.0 mi East 13.8 mph 23.0 mph N/A   Overcast
7:15 AM 57.7 °F 51.8 °F 81% 29.93 in 10.0 mi ESE 12.7 mph 24.2 mph N/A   Overcast
7:35 AM 57.7 °F 51.8 °F 81% 29.94 in 10.0 mi ESE 10.4 mph - N/A   Overcast
7:55 AM 57.7 °F 52.0 °F 81% 29.95 in 10.0 mi ESE 9.2 mph - N/A   Overcast
8:15 AM 57.7 °F 52.2 °F 82% 29.95 in 10.0 mi ESE 10.4 mph - N/A   Overcast
8:35 AM 57.7 °F 52.2 °F 82% 29.96 in 10.0 mi ESE 8.1 mph - N/A   Overcast
8:55 AM 57.7 °F 52.3 °F 82% 29.96 in 10.0 mi East 8.1 mph - N/A   Overcast
9:15 AM 57.7 °F 52.7 °F 83% 29.95 in 10.0 mi East 11.5 mph - N/A   Overcast
9:35 AM 57.7 °F 52.7 °F 83% 29.93 in 10.0 mi ESE 13.8 mph 19.6 mph N/A   Overcast
9:55 AM 57.7 °F 52.3 °F 82% 29.93 in 10.0 mi East 11.5 mph 16.1 mph N/A   Overcast
10:15 AM 58.5 °F 53.1 °F 82% 29.93 in 10.0 mi East 9.2 mph 17.3 mph N/A   Overcast
10:35 AM 59.0 °F 53.4 °F 82% 29.92 in 10.0 mi East 10.4 mph - N/A   Overcast
10:55 AM 59.0 °F 53.6 °F 82% 29.92 in 10.0 mi ESE 9.2 mph - N/A   Overcast
11:15 AM 60.3 °F 54.9 °F 82% 29.91 in 10.0 mi ESE 11.5 mph - N/A   Overcast
11:35 AM 60.6 °F 54.7 °F 81% 29.90 in 10.0 mi ESE 13.8 mph - N/A   Overcast
11:55 AM 61.3 °F 55.6 °F 81% 29.89 in 10.0 mi ESE 12.7 mph 17.3 mph N/A   Overcast
12:15 PM 61.9 °F 55.9 °F 81% 29.88 in 10.0 mi East 9.2 mph - N/A   Overcast
12:35 PM 62.8 °F 57.2 °F 82% 29.86 in 10.0 mi ESE 10.4 mph - N/A   Overcast
12:55 PM 65.3 °F 59.0 °F 80% 29.83 in 10.0 mi ESE 11.5 mph - N/A   Overcast
1:15 PM 68.0 °F 61.3 °F 79% 29.81 in 10.0 mi ESE 11.5 mph 17.3 mph N/A   Overcast
1:35 PM 68.0 °F 61.2 °F 79% 29.79 in 10.0 mi ESE 11.5 mph - N/A   Overcast
2:15 PM 72.9 °F 61.9 °F 68% 29.75 in 10.0 mi SE 16.1 mph - N/A   Mostly Cloudy
2:35 PM 75.2 °F 61.9 °F 63% 29.73 in 10.0 mi SSE 20.7 mph 25.3 mph N/A   Mostly Cloudy
2:55 PM 75.4 °F 61.2 °F 61% 29.73 in 10.0 mi SSE 21.9 mph - N/A   Mostly Cloudy
3:15 PM 77.7 °F 61.3 °F 57% 29.71 in 10.0 mi SSE 19.6 mph 23.0 mph N/A   Mostly Cloudy
3:35 PM 77.5 °F 61.2 °F 57% 29.70 in 10.0 mi SSE 19.6 mph 26.5 mph N/A   Scattered Clouds
3:55 PM 77.9 °F 61.0 °F 56% 29.69 in 10.0 mi SSE 17.3 mph 24.2 mph N/A   Scattered Clouds
4:15 PM 77.9 °F 60.8 °F 56% 29.68 in 10.0 mi SSE 18.4 mph 21.9 mph N/A   Scattered Clouds
4:35 PM 77.9 °F 59.9 °F 54% 29.67 in 10.0 mi SE 19.6 mph 24.2 mph N/A   Scattered Clouds
4:55 PM 77.9 °F 61.7 °F 57% 29.66 in 10.0 mi SE 17.3 mph 23.0 mph N/A   Scattered Clouds
5:15 PM 77.9 °F 59.5 °F 53% 29.66 in 10.0 mi SE 21.9 mph 25.3 mph N/A   Scattered Clouds
5:35 PM 77.9 °F 60.1 °F 54% 29.65 in 10.0 mi SE 20.7 mph 26.5 mph N/A   Scattered Clouds
5:55 PM 77.9 °F 60.8 °F 56% 29.65 in 10.0 mi SE 18.4 mph 26.5 mph N/A   Clear
6:15 PM 75.4 °F 59.5 °F 58% 29.65 in 10.0 mi SE 19.6 mph 23.0 mph N/A   Clear
6:35 PM 75.4 °F 61.0 °F 61% 29.64 in 10.0 mi SE 13.8 mph 24.2 mph N/A   Scattered Clouds
7:15 PM 72.9 °F 62.8 °F 71% 29.64 in 10.0 mi ESE 16.1 mph - N/A   Mostly Cloudy
7:35 PM 72.9 °F 65.3 °F 77% 29.64 in 10.0 mi East 12.7 mph 23.0 mph N/A   Scattered Clouds
7:55 PM 71.1 °F 64.6 °F 80% 29.63 in 10.0 mi East 13.8 mph 19.6 mph N/A   Clear
8:15 PM 70.3 °F 64.9 °F 83% 29.63 in 10.0 mi East 15.0 mph 23.0 mph N/A   Clear
8:35 PM 69.1 °F 64.6 °F 86% 29.63 in 10.0 mi ESE 16.1 mph 24.2 mph N/A   Mostly Cloudy
8:55 PM 70.3 °F 65.7 °F 85% 29.63 in 10.0 mi ESE 16.1 mph 23.0 mph N/A   Overcast
9:15 PM 70.3 °F 65.5 °F 85% 29.63 in 10.0 mi ESE 19.6 mph 25.3 mph N/A   Overcast
9:35 PM 70.3 °F 65.7 °F 85% 29.63 in 10.0 mi ESE 19.6 mph 26.5 mph N/A   Overcast
9:55 PM 69.4 °F 65.1 °F 86% 29.63 in 10.0 mi SE 17.3 mph 25.3 mph N/A   Overcast
10:35 PM 69.1 °F 64.8 °F 86% 29.63 in 10.0 mi ESE 16.1 mph 21.9 mph N/A   Overcast
10:55 PM 69.1 °F 64.4 °F 85% 29.63 in 10.0 mi SE 17.3 mph 21.9 mph N/A   Overcast
11:15 PM 69.1 °F 64.2 °F 84% 29.62 in 10.0 mi SE 15.0 mph 19.6 mph N/A   Overcast
11:35 PM 69.1 °F 64.0 °F 84% 29.61 in 10.0 mi SE 15.0 mph - N/A   Overcast
11:55 PM 68.0 °F 63.3 °F 85% 29.62 in 10.0 mi SE 15.0 mph 21.9 mph N/A   Overcast